Bloomington, IN

1:39 PM EST on November 22, 2019 (GMT -0500)
Monroe County

Weather History for KBMG - September, 2019

Change the Weather History Date:

Friday, September 20, 2019

  Actual Average Record
Temperature  
Mean Temperature 74 °F 64 °F  
Max Temperature 88 °F 77 °F 92 °F (2018)
Min Temperature 60 °F 51 °F 39 °F (2003)
Degree Days  
Heating Degree Days 0 3  
Month to date heating degree days 0 27  
Since 1 July heating degree days 0 34  
Cooling Degree Days 9 2  
Month to date cooling degree days 157 80  
Year to date cooling degree days 1129 897  
Growing Degree Days 24 (Base 50)    
Moisture  
Dew Point 64 °F    
Average Humidity 82    
Maximum Humidity 100    
Minimum Humidity 48    
Precipitation  
Precipitation 0.01 in 0.10 in 1.14 in (2000)
Month to date precipitation 0.88 2.16  
Year to date precipitation 37.10 35.35  
Sea Level Pressure  
Sea Level Pressure 30.12 in    
Wind  
Wind Speed 1 mph ()    
Max Wind Speed 12 mph    
Max Gust Speed 17 mph    
Visibility 6.5 miles    
Events Fog , Rain    
T = Trace of Precipitation, MM = Missing Value Source: Averaged Metar Reports

Daily Weather History Graph

Daily Weather History Graph

Search for Another Location

Airport or City:

Astronomy

Sep. 20, 2019 Rise Set
Actual Time 7:32 AM EDT 7:47 PM EDT
Civil Twilight 7:05 AM EDT 8:13 PM EDT
Nautical Twilight 6:34 AM EDT 8:45 PM EDT
Astronomical Twilight 6:02 AM EDT 9:16 PM EDT
Moon 11:39 PM EDT (9/20) 1:33 PM EDT (9/20)
Length of Visible Light 13h 08m
Length of Day
12h 14m
Waning Gibbous, 65% of the Moon is Illuminated
Sep 20
Waning Gibbous
Sep 21
Last Quarter
Sep 28
New
Oct 5
First Quarter
Oct 13
Full

Hourly Weather History & Observations

Time (EDT) Temp. Heat Index Dew Point Humidity Pressure Visibility Wind Dir Wind Speed Gust Speed Precip Events Conditions
12:46 AM 64.9 °F - 63.0 °F 93% 30.09 in 1.8 mi Calm Calm - N/A   Clear
12:53 AM 66.0 °F - 64.0 °F 93% 30.07 in 1.2 mi Calm Calm - N/A   Partly Cloudy
12:57 AM 66.0 °F - 64.0 °F 93% 30.09 in 4.0 mi Calm Calm - N/A   Scattered Clouds
1:53 AM 66.0 °F - 63.0 °F 90% 30.08 in 10.0 mi Calm Calm - N/A   Partly Cloudy
2:53 AM 64.9 °F - 62.1 °F 90% 30.08 in 7.0 mi Calm Calm - N/A   Clear
3:53 AM 63.0 °F - 60.1 °F 90% 30.08 in 5.0 mi Calm Calm - N/A   Clear
4:20 AM 63.0 °F - 60.1 °F 90% 30.10 in 2.0 mi Calm Calm - N/A   Clear
4:30 AM 63.0 °F - 61.0 °F 93% 30.10 in 3.0 mi Calm Calm - N/A   Clear
4:53 AM 64.0 °F - 61.0 °F 90% 30.08 in 10.0 mi ESE 3.5 mph - N/A   Clear
5:53 AM 64.0 °F - 62.1 °F 93% 30.10 in 6.0 mi SE 3.5 mph - N/A   Clear
6:28 AM 64.0 °F - 61.0 °F 90% 30.13 in 1.2 mi Calm Calm - N/A   Clear
6:33 AM 63.0 °F - 61.0 °F 93% 30.13 in 3.0 mi Calm Calm - N/A   Clear
6:42 AM 64.0 °F - 62.1 °F 93% 30.13 in 1.5 mi Calm Calm - N/A   Clear
6:49 AM 62.6 °F - 62.6 °F 100% 30.13 in 0.2 mi Calm Calm - N/A Fog Fog
6:50 AM 63.0 °F - 62.1 °F 97% 30.11 in 0.2 mi Calm Calm - N/A Fog Fog
7:00 AM 64.0 °F - 62.1 °F 93% 30.14 in 1.0 mi Calm Calm - N/A   Clear
7:03 AM 63.0 °F - 61.0 °F 93% 30.14 in 4.0 mi Calm Calm - N/A   Clear
7:48 AM 60.8 °F - 59.0 °F 94% 30.15 in 4.0 mi SE 4.6 mph - N/A   Partly Cloudy
7:53 AM 60.1 °F - 57.9 °F 93% 30.14 in 4.0 mi SSE 4.6 mph - N/A   Clear
8:53 AM 69.1 °F - 64.9 °F 87% 30.15 in 8.0 mi Calm Calm - N/A   Clear
9:53 AM 73.9 °F - 68.0 °F 82% 30.16 in 10.0 mi SW 9.2 mph - N/A   Clear
10:53 AM 79.0 °F - 68.0 °F 69% 30.17 in 10.0 mi SW 8.1 mph - N/A   Clear
11:53 AM 82.0 °F 85.5 °F 69.1 °F 65% 30.16 in 10.0 mi Variable 5.8 mph - N/A   Clear
12:53 PM 81.0 °F 83.3 °F 66.9 °F 62% 30.15 in 10.0 mi WSW 6.9 mph - N/A   Clear
1:53 PM 84.0 °F 85.8 °F 64.9 °F 53% 30.15 in 10.0 mi Variable 3.5 mph - N/A   Partly Cloudy
2:53 PM 86.0 °F 88.2 °F 66.0 °F 51% 30.13 in 10.0 mi Variable 4.6 mph - N/A   Mostly Cloudy
3:53 PM 86.0 °F 87.6 °F 64.9 °F 49% 30.12 in 10.0 mi Variable 4.6 mph - N/A   Scattered Clouds
4:53 PM 86.0 °F 88.2 °F 66.0 °F 51% 30.11 in 10.0 mi Variable 4.6 mph - N/A   Clear
5:53 PM 81.0 °F 83.8 °F 68.0 °F 65% 30.12 in 10.0 mi SW 3.5 mph - N/A   Clear
6:53 PM 75.9 °F - 68.0 °F 76% 30.13 in 10.0 mi Calm Calm - 0.00 in Rain Light Rain
7:53 PM 75.0 °F - 66.0 °F 73% 30.13 in 10.0 mi Calm Calm - 0.01 in   Mostly Cloudy
8:53 PM 73.0 °F - 68.0 °F 84% 30.14 in 10.0 mi Calm Calm - N/A   Mostly Cloudy
9:53 PM 75.0 °F - 66.9 °F 76% 30.16 in 10.0 mi Calm Calm - N/A   Mostly Cloudy
10:53 PM 75.9 °F - 66.9 °F 74% 30.15 in 10.0 mi SSW 6.9 mph - N/A   Overcast
11:53 PM 75.0 °F - 66.9 °F 76% 30.16 in 10.0 mi SSW 3.5 mph - N/A   Mostly Cloudy